GSAT0212 (GALILEO 16) (41860 NORAD) Tracking and Keplerian Element Data

This shows tracking and keplerian element data for the satellite.

Feedback or suggestion? Click here.




ElementValue
Catalog41860
NameGSAT0212 (GALILEO 16)
Epoch Orbit3021
Epoch Day267.2844262
Epoch Year2021
RAAN148.9666
Inclination54.737
Eccentricity0.0002592
Argument of Perigee353.329
Mean Anonmoly6.7635
Mean Motion1.70472614
Decay Rate7E-08
L11 41860U 16069B 21267.28442620 .00000007 00000-0 00000-0 0 9994
L22 41860 54.7370 148.9666 0002592 353.3290 6.7635 1.70472614 30215

Live tracking and technical data element details for GSAT0212 (GALILEO 16) (NORAD 41860). GSAT0212 (GALILEO 16) can be tracked NOW for your location showing map with azimuth and elevation plus other details from your city location.

Track the satellite on the map from your city or location and see movement details for azimuth, elevation, latitude, longitude, range, height, and movement on the map or in text.







IsCatalogInMostPopularTable: catalog: 41860, numindb: 599
Update: records affected: 1



GetName: 41860 GSAT0212 (GALILEO 16)

Hit Count: updated at: Mon, 27 Sep 2021 22:32:34 GMT